Temp
63 63 62 62 62 62 62 61 61 61 61 61 60 60 60 60 61 61 62 62 61 62 62 63 65 65 67 72 80 81 82 83 83 83 81 77 72 72 70 74 77 73 76 80 80 81 79
63 63 62 62 62 62 61 61 61 61 61 61 60 60 60 60 61 61 61 61 60 61 62 64 65 66 69 70 82 82 81 81 80 81 80 80 77 78 74 77 76 78 78 77 78 78 78
63 62 62 62 62 61 61 61 61 61 61 60 60 59 60 60 60 61 60 60 60 61 62 64 66 70 71 80 84 82 81 80 80 81 77 83 82 75 75 76 81 79 73 74 75 76 75
62 62 62 62 61 61 61 61 61 61 60 60 60 59 59 59 59 59 59 58 59 62 64 65 67 66 73 85 82 80 79 80 82 83 83 82 82 76 77 80 80 74 71 63 73 75 75
62 62 62 62 61 61 61 61 61 60 60 60 59 59 59 58 58 57 57 57 60 64 66 67 63 65 75 84 83 85 82 84 80 79 81 91 80 73 75 71 66 68 60 64 69 76 74
62 62 62 62 61 61 61 61 60 60 60 60 60 60 59 59 57 56 56 57 62 63 67 72 77 69 79 81 83 87 83 88 85 82 80 79 71 67 66 65 58 63 61 66 65 71 73
62 62 62 62 61 61 60 60 60 61 61 61 60 59 59 59 57 56 52 62 67 65 62 71 69 73 80 86 85 85 87 86 83 80 69 73 68 64 69 71 73 69 67 67 69 73 70
62 62 62 62 61 61 61 60 60 60 60 60 59 59 58 58 57 56 50 66 68 65 60 72 74 75 78 79 78 83 86 80 75 69 68 67 64 72 75 72 69 68 65 64 69 73 70
62 62 62 62 62 61 61 61 60 60 59 59 58 58 58 56 56 54 57 64 67 64 57 69 72 73 76 81 77 78 84 77 73 68 68 65 70 78 74 69 70 63 62 64 66 69 69
62 62 62 62 62 62 60 59 59 59 59 58 58 58 57 54 59 55 63 64 64 64 54 63 66 76 77 80 74 85 84 82 72 72 69 67 73 74 72 68 68 57 72 72 67 63 57
62 63 62 62 60 60 59 59 59 59 58 58 57 57 56 54 52 59 66 60 62 67 45 68 67 78 70 77 76 77 82 80 72 72 69 68 68 71 70 70 72 71 74 69 65 60 57
61 61 63 62 60 60 59 59 59 58 58 57 57 56 55 51 48 58 60 62 68 56 48 64 70 67 67 66 72 74 77 80 78 71 66 70 73 72 73 74 72 73 69 63 57 55 51
61 61 60 60 60 59 59 58 58 58 57 57 56 54 54 57 62 58 61 66 54 46 64 62 61 62 60 63 68 71 69 66 66 58 56 67 68 71 74 66 69 67 59 51 51 50 51
61 61 60 60 59 59 59 59 58 57 57 56 54 53 53 55 53 58 64 61 42 57 55 64 62 59 64 64 63 65 66 63 62 63 56 58 60 68 72 73 68 60 60 53 46 47 52
61 61 60 60 59 59 59 59 58 57 57 55 53 50 49 53 54 57 62 48 51 55 64 63 62 56 57 61 65 63 62 63 68 67 62 55 59 70 73 71 73 60 57 58 50 43 48
60 61 61 60 60 59 59 58 58 57 56 54 49 49 54 56 55 59 56 49 54 60 67 62 53 57 56 58 61 59 61 67 68 70 66 62 57 65 71 72 68 65 67 59 52 46 44
60 61 60 60 60 59 59 58 58 56 55 54 50 54 62 55 57 57 51 51 58 64 66 60 57 56 58 59 61 57 62 67 71 65 67 60 58 62 63 62 64 62 58 54 54 50 48
60 60 60 60 59 59 59 58 57 55 54 53 47 51 60 60 53 40 45 54 58 61 66 63 61 60 60 61 58 58 66 70 73 70 67 63 57 55 64 66 67 66 62 58 55 51 47
59 59 59 59 59 59 59 58 56 55 54 52 45 45 58 61 46 45 47 56 61 60 59 60 61 64 61 58 57 62 64 74 74 71 66 65 56 52 59 58 60 60 58 53 53 50 48
59 59 59 59 59 59 58 57 56 55 54 53 47 46 52 54 48 45 48 53 54 65 64 64 64 65 60 60 60 61 63 74 74 75 73 74 54 58 54 60 62 59 64 59 58 53 51
59 59 59 59 59 59 58 57 56 55 55 50 48 47 48 46 49 49 48 55 58 57 64 63 59 64 62 54 56 60 64 67 69 68 65 68 60 56 61 63 65 67 67 63 61 58 61
58 58 58 59 59 59 58 58 57 56 54 51 47 45 47 45 48 48 47 52 57 59 59 60 59 65 62 58 63 59 65 62 65 62 61 59 60 58 59 61 64 64 67 66 64 60 62
58 58 58 59 59 59 59 58 58 57 53 47 49 49 48 46 48 47 48 54 58 59 62 66 66 62 62 67 72 73 70 67 64 63 61 59 55 54 56 57 58 58 65 66 64 63 65
58 58 58 58 59 59 59 59 58 58 55 54 54 52 49 46 49 52 55 56 56 60 57 64 64 62 68 71 69 62 59 63 64 64 63 57 54 51 51 51 48 64 65 69 69 68 67
57 57 58 58 58 58 58 59 59 57 56 54 56 51 49 45 49 52 55 55 55 59 56 59 65 67 65 63 59 57 57 58 62 59 58 59 54 48 53 49 57 64 67 69 66 69 70
57 57 57 58 58 58 58 59 58 57 56 56 49 56 51 48 47 56 53 54 49 50 53 59 65 64 60 58 57 51 52 56 57 60 52 55 56 58 46 51 52 63 68 70 71 61 70
57 57 57 57 57 58 58 58 58 58 57 54 50 55 51 48 52 51 49 50 54 52 49 53 59 60 58 53 52 51 54 58 56 56 54 52 50 53 48 50 57 64 68 70 59 64 67
56 56 57 56 57 58 58 58 58 58 58 53 49 52 52 49 50 55 59 53 54 53 49 54 55 56 55 51 51 51 52 54 53 54 53 56 52 50 48 49 54 67 67 67 66 62 67
56 56 56 56 57 58 58 58 58 58 57 56 48 57 57 48 49 54 60 65 66 63 54 54 52 53 56 52 51 50 53 51 50 53 54 56 57 54 56 55 60 61 63 65 65 67 67
MSLP
1022.02 1021.77 1021.62 1021.38 1021.15 1020.83 1020.54 1020.23 1019.88 1019.52 1019.19 1018.86 1018.58 1018.21 1017.87 1017.19 1016.50 1015.95 1015.35 1014.89 1014.33 1014.13 1013.82 1013.27 1013.16 1012.40 1012.04 1011.45 1009.60 1008.71 1008.88 1009.39 1009.78 1010.21 1010.47 1010.81 1011.33 1011.43 1011.43 1011.06 1010.74 1010.77 1010.56 1010.45 1010.26 1010.24 1010.79
1022.29 1022.04 1021.79 1021.53 1021.29 1021.00 1020.67 1020.37 1020.02 1019.64 1019.25 1018.86 1018.56 1018.22 1017.77 1017.30 1016.54 1015.86 1015.28 1014.69 1014.20 1013.62 1013.54 1013.20 1012.56 1012.38 1011.98 1010.58 1008.71 1008.79 1009.11 1010.01 1010.14 1010.39 1010.52 1010.73 1010.67 1010.61 1010.95 1010.32 1010.17 1010.19 1010.41 1010.55 1010.38 1010.66 1011.07
1022.59 1022.28 1021.98 1021.72 1021.44 1021.17 1020.86 1020.40 1020.00 1019.68 1019.34 1018.95 1018.50 1018.15 1017.72 1017.14 1016.55 1015.86 1015.23 1014.55 1014.02 1013.53 1013.11 1012.98 1012.69 1012.17 1011.17 1009.18 1008.38 1008.89 1009.28 1009.51 1009.73 1009.95 1010.34 1009.83 1010.26 1010.68 1010.41 1009.87 1009.70 1009.94 1010.64 1010.62 1010.75 1010.82 1011.49
1022.84 1022.55 1022.20 1021.92 1021.61 1021.32 1020.95 1020.48 1020.05 1019.69 1019.32 1019.02 1018.54 1018.08 1017.61 1017.04 1016.45 1015.80 1015.10 1014.38 1013.72 1013.29 1012.95 1012.62 1012.61 1012.15 1010.44 1008.17 1008.66 1009.33 1009.51 1009.87 1009.78 1009.93 1009.97 1009.98 1010.29 1010.89 1010.26 1009.57 1009.82 1010.24 1010.85 1011.06 1011.02 1011.00 1011.57
1023.04 1022.77 1022.45 1022.07 1021.72 1021.44 1021.02 1020.59 1020.21 1019.76 1019.32 1018.92 1018.53 1018.03 1017.47 1016.90 1016.30 1015.56 1014.87 1014.09 1013.28 1012.84 1012.76 1012.60 1012.45 1011.78 1009.62 1008.09 1008.27 1008.23 1008.63 1008.97 1009.50 1010.06 1009.90 1009.90 1010.58 1010.52 1010.05 1010.21 1010.72 1010.89 1011.20 1011.29 1011.04 1011.09 1011.56
1023.27 1022.98 1022.67 1022.31 1021.89 1021.55 1021.15 1020.67 1020.27 1019.87 1019.38 1018.85 1018.35 1017.81 1017.21 1016.67 1016.13 1015.43 1014.39 1013.68 1012.98 1012.77 1012.66 1012.52 1012.12 1011.70 1008.79 1007.83 1007.34 1007.31 1007.72 1008.18 1008.60 1009.00 1009.66 1009.60 1010.13 1010.47 1010.71 1010.69 1011.13 1011.04 1011.21 1011.08 1011.18 1011.21 1011.55
1023.46 1023.17 1022.83 1022.51 1022.10 1021.71 1021.30 1020.81 1020.30 1019.85 1019.30 1018.64 1018.02 1017.41 1016.81 1016.36 1015.93 1015.27 1014.39 1013.20 1013.58 1013.36 1012.64 1011.52 1010.99 1010.19 1008.76 1007.69 1007.14 1006.99 1007.00 1007.70 1008.00 1008.62 1009.32 1009.55 1010.18 1010.47 1010.25 1009.88 1009.81 1010.39 1010.58 1010.74 1010.74 1010.98 1011.49
1023.63 1023.30 1022.97 1022.64 1022.24 1021.87 1021.40 1020.89 1020.37 1019.67 1019.09 1018.51 1017.91 1017.25 1016.58 1016.01 1015.58 1014.99 1014.83 1014.08 1013.99 1014.26 1012.93 1010.69 1010.36 1009.76 1008.84 1008.43 1008.08 1006.92 1006.64 1007.36 1008.06 1008.92 1009.59 1010.37 1009.99 1009.56 1009.36 1009.05 1009.35 1009.88 1010.42 1010.71 1010.87 1011.15 1011.72
1023.76 1023.45 1023.08 1022.73 1022.31 1021.87 1021.43 1020.79 1020.10 1019.54 1019.00 1018.40 1017.82 1017.22 1016.48 1015.67 1015.18 1014.98 1014.95 1013.86 1013.42 1013.47 1013.26 1010.44 1009.52 1008.85 1008.30 1008.35 1007.99 1007.20 1007.01 1007.39 1008.18 1009.05 1009.49 1009.73 1008.89 1008.42 1008.34 1008.50 1008.58 1009.20 1009.84 1010.39 1010.98 1011.72 1012.21
1023.89 1023.53 1023.18 1022.82 1022.30 1021.82 1021.39 1020.78 1020.13 1019.39 1018.79 1018.32 1017.77 1017.18 1016.52 1015.53 1015.15 1015.39 1014.35 1013.33 1013.26 1013.37 1012.97 1010.20 1008.94 1007.41 1007.58 1007.61 1007.42 1006.45 1006.56 1007.06 1008.14 1008.66 1009.24 1009.19 1008.48 1008.19 1007.99 1008.06 1008.36 1008.62 1008.95 1010.06 1011.25 1012.00 1012.73
1023.95 1023.52 1023.23 1022.79 1022.36 1021.87 1021.30 1020.71 1020.09 1019.41 1018.68 1018.05 1017.61 1017.17 1016.69 1016.43 1016.13 1015.17 1013.70 1013.29 1012.82 1012.96 1012.35 1009.05 1007.95 1006.51 1006.91 1007.07 1006.68 1006.45 1006.33 1006.64 1007.74 1008.49 1009.16 1008.81 1008.35 1008.07 1008.17 1007.84 1008.05 1008.41 1008.72 1010.34 1011.57 1012.48 1013.00
1023.98 1023.64 1023.17 1022.80 1022.43 1021.92 1021.28 1020.61 1019.96 1019.32 1018.62 1017.82 1017.13 1016.89 1016.56 1016.43 1016.19 1013.90 1013.19 1012.93 1012.74 1013.12 1010.99 1008.27 1007.14 1006.78 1007.11 1006.78 1006.62 1006.49 1006.46 1006.67 1007.46 1008.48 1008.88 1008.79 1008.35 1008.12 1007.64 1007.43 1007.86 1008.72 1009.48 1011.21 1012.48 1013.55 1014.25
1023.95 1023.62 1023.23 1022.82 1022.38 1021.89 1021.34 1020.69 1019.96 1019.16 1018.38 1017.39 1016.41 1016.10 1016.35 1015.80 1014.49 1013.35 1013.08 1013.22 1013.66 1013.01 1010.00 1008.51 1007.54 1007.18 1007.16 1007.14 1006.99 1006.78 1007.09 1007.47 1008.15 1009.20 1009.41 1008.89 1008.29 1007.62 1007.32 1007.75 1008.13 1009.09 1010.32 1012.42 1013.94 1014.78 1014.70
1023.87 1023.60 1023.24 1022.86 1022.36 1021.81 1021.25 1020.63 1019.97 1019.25 1018.13 1016.82 1015.77 1015.00 1014.82 1014.31 1013.68 1013.40 1013.33 1013.89 1013.69 1011.65 1010.33 1008.69 1007.88 1007.62 1007.49 1007.32 1007.32 1007.31 1007.65 1008.32 1008.59 1009.05 1009.86 1009.49 1008.67 1007.68 1007.14 1007.41 1008.10 1009.22 1010.35 1012.22 1013.94 1015.21 1014.78
1023.75 1023.36 1023.10 1022.81 1022.43 1021.91 1021.31 1020.59 1019.83 1019.01 1017.99 1016.76 1015.25 1014.78 1014.87 1013.49 1013.58 1013.96 1013.99 1014.33 1012.89 1011.65 1010.13 1009.18 1008.27 1007.96 1007.78 1007.52 1007.51 1007.83 1008.17 1008.59 1008.60 1008.74 1009.34 1009.48 1008.71 1007.68 1007.29 1007.12 1007.59 1009.43 1010.70 1011.56 1013.39 1015.20 1015.08
1023.85 1023.35 1022.96 1022.67 1022.31 1021.92 1021.32 1020.65 1019.96 1019.00 1017.79 1016.75 1016.36 1015.69 1014.58 1013.39 1013.54 1013.99 1014.05 1013.79 1012.52 1011.27 1010.14 1009.22 1008.78 1008.12 1008.08 1007.92 1008.04 1008.36 1008.58 1007.65 1008.09 1008.08 1007.95 1009.15 1009.12 1007.97 1007.38 1007.37 1008.15 1008.81 1010.06 1011.78 1013.33 1014.79 1015.03
1024.04 1023.35 1022.94 1022.66 1022.41 1022.00 1021.46 1020.80 1020.10 1019.17 1017.94 1016.52 1016.44 1015.85 1014.10 1013.64 1013.84 1014.13 1013.98 1013.02 1011.88 1010.83 1010.31 1009.52 1008.97 1008.51 1008.16 1008.01 1007.98 1008.30 1007.99 1007.45 1007.21 1007.81 1008.20 1009.07 1009.56 1008.91 1008.10 1007.93 1008.07 1009.17 1010.04 1011.97 1013.23 1014.07 1014.40
1024.09 1023.60 1022.97 1022.73 1022.51 1022.10 1021.63 1021.06 1020.38 1019.48 1018.32 1017.12 1017.61 1016.75 1014.37 1013.96 1014.50 1014.93 1014.28 1012.71 1011.54 1010.60 1009.95 1009.55 1009.19 1008.79 1008.21 1007.86 1008.01 1007.93 1007.37 1006.71 1006.02 1006.86 1008.39 1008.73 1009.59 1009.61 1008.98 1007.83 1007.79 1008.20 1009.20 1010.73 1012.91 1014.31 1014.26
1024.26 1023.85 1023.40 1023.03 1022.64 1022.23 1021.77 1021.22 1020.63 1020.06 1019.56 1019.13 1018.69 1017.32 1014.63 1014.31 1015.07 1015.14 1013.83 1012.60 1011.43 1010.78 1010.22 1009.86 1009.40 1008.78 1008.33 1007.95 1007.96 1007.12 1006.41 1005.33 1005.65 1006.46 1007.09 1008.30 1009.21 1009.87 1008.84 1008.63 1008.26 1008.14 1008.81 1010.12 1011.50 1012.48 1013.39
1024.53 1024.11 1023.64 1023.24 1022.81 1022.35 1021.86 1021.33 1020.73 1020.12 1019.66 1019.40 1019.07 1018.15 1016.19 1015.54 1015.57 1015.22 1014.24 1012.66 1011.59 1010.43 1010.03 1009.58 1009.19 1008.84 1008.61 1008.02 1007.55 1006.95 1006.05 1004.95 1004.93 1005.44 1005.71 1006.66 1008.83 1009.10 1008.68 1008.00 1007.58 1007.99 1008.33 1009.28 1010.25 1011.84 1012.48
1024.67 1024.25 1023.80 1023.37 1022.89 1022.45 1021.99 1021.51 1020.91 1020.19 1019.61 1019.57 1019.38 1018.98 1018.31 1017.15 1016.14 1015.63 1014.85 1013.31 1011.96 1011.11 1010.10 1009.58 1009.02 1008.57 1008.58 1008.27 1007.38 1006.82 1005.88 1005.19 1005.18 1005.40 1006.13 1006.86 1008.33 1008.71 1007.94 1007.39 1007.25 1007.12 1007.62 1008.31 1009.33 1009.78 1010.29
1024.88 1024.45 1024.01 1023.50 1023.02 1022.58 1022.15 1021.67 1021.07 1020.31 1019.54 1019.57 1019.79 1019.65 1018.82 1017.89 1016.64 1015.85 1014.54 1013.22 1012.11 1011.21 1010.53 1009.54 1009.21 1008.04 1008.22 1008.10 1006.93 1006.34 1005.44 1005.17 1004.97 1005.89 1006.57 1007.34 1007.92 1008.44 1008.23 1007.46 1007.19 1006.91 1006.79 1007.33 1007.93 1008.65 1008.77
1025.03 1024.59 1024.11 1023.61 1023.15 1022.74 1022.35 1021.88 1021.40 1020.77 1020.05 1020.15 1020.10 1019.81 1019.57 1017.87 1016.80 1016.01 1014.64 1013.78 1012.57 1012.00 1010.12 1009.00 1008.31 1008.18 1007.74 1006.62 1005.84 1005.10 1005.03 1004.81 1004.82 1005.49 1006.66 1007.36 1008.09 1009.18 1008.98 1007.78 1007.44 1006.85 1006.05 1006.15 1006.35 1006.61 1007.10
1025.05 1024.68 1024.26 1023.78 1023.30 1022.88 1022.48 1022.08 1021.66 1021.27 1021.07 1021.10 1020.74 1020.49 1019.93 1018.35 1017.10 1015.73 1014.64 1014.00 1013.24 1012.32 1011.48 1009.31 1008.70 1008.25 1006.13 1005.83 1005.31 1004.94 1004.86 1004.83 1004.99 1005.21 1005.87 1007.26 1008.43 1008.95 1009.49 1008.65 1007.80 1005.50 1004.57 1004.61 1005.16 1005.37 1005.55
1025.06 1024.65 1024.27 1023.87 1023.40 1022.96 1022.58 1022.16 1021.76 1021.45 1021.23 1021.15 1021.00 1020.79 1020.08 1018.64 1017.27 1015.59 1014.77 1014.07 1013.34 1012.08 1011.07 1009.42 1008.26 1006.92 1006.46 1006.29 1006.24 1005.91 1005.74 1005.32 1004.93 1005.62 1006.22 1006.74 1007.96 1009.27 1009.59 1009.09 1007.28 1005.12 1004.30 1004.31 1004.85 1004.47 1004.14
1024.97 1024.56 1024.17 1023.76 1023.35 1022.94 1022.56 1022.13 1021.83 1021.49 1021.22 1020.95 1020.82 1020.54 1020.13 1019.06 1016.64 1015.44 1015.13 1014.33 1013.86 1012.83 1011.36 1009.51 1007.88 1006.82 1006.69 1006.88 1007.05 1007.12 1006.67 1005.89 1005.72 1006.24 1006.84 1007.21 1007.52 1008.40 1009.78 1008.86 1007.23 1004.91 1004.06 1003.94 1004.26 1004.21 1003.87
1024.85 1024.43 1023.99 1023.60 1023.22 1022.79 1022.38 1022.13 1021.74 1021.37 1021.09 1021.01 1020.74 1020.34 1019.94 1018.97 1016.33 1015.60 1014.96 1014.15 1013.55 1013.12 1012.37 1010.86 1009.72 1007.84 1007.06 1007.39 1007.88 1007.96 1007.30 1006.38 1006.20 1006.30 1007.08 1007.71 1008.48 1008.95 1009.26 1008.16 1006.14 1004.54 1004.30 1004.20 1004.78 1004.26 1003.61
1024.75 1024.31 1023.88 1023.42 1022.93 1022.50 1022.03 1021.72 1021.47 1021.15 1020.86 1020.79 1020.43 1020.14 1019.90 1018.57 1016.33 1015.14 1014.37 1013.69 1013.29 1013.00 1012.63 1011.25 1010.44 1008.96 1008.20 1008.34 1008.60 1008.39 1007.87 1007.30 1007.05 1006.74 1006.83 1007.61 1008.33 1009.00 1009.21 1008.26 1006.38 1004.56 1004.68 1004.40 1003.78 1003.89 1003.95
1024.65 1024.20 1023.71 1023.23 1022.78 1022.32 1021.82 1021.43 1021.08 1020.74 1020.52 1020.40 1020.43 1019.58 1019.57 1019.22 1016.44 1014.67 1013.62 1012.56 1011.99 1011.88 1012.05 1011.96 1011.25 1010.43 1009.11 1009.08 1009.11 1008.78 1008.54 1008.20 1008.02 1007.84 1007.22 1007.79 1007.81 1008.23 1008.17 1007.10 1006.13 1005.45 1004.89 1003.59 1003.85 1003.82 1004.01
Wind_Speed
15 15 15 15 15 15 16 16 16 17 17 17 16 17 17 18 19 19 19 18 19 17 16 16 14 15 2 2 6 4 14 14 8 4 7 4 4 2 1 3 6 1 3 3 4 7 8
15 15 16 16 16 16 16 17 17 17 17 17 17 17 18 18 19 19 20 19 19 19 16 15 15 14 1 1 3 12 14 11 4 5 6 8 7 5 3 4 2 1 5 2 7 6 4
15 16 16 16 17 17 16 18 17 17 17 17 18 17 17 19 19 19 20 20 20 19 17 13 11 4 2 8 9 10 13 9 6 9 7 10 4 2 3 2 1 6 3 3 3 3 5
15 16 16 17 17 17 18 19 17 18 18 18 18 19 19 20 20 20 21 21 21 19 14 10 5 1 6 1 11 8 3 4 4 8 6 3 5 5 4 2 3 5 4 1 1 3 3
15 16 16 17 17 17 19 19 18 19 18 19 19 19 20 20 21 22 22 23 18 10 4 4 2 2 7 5 3 9 9 6 7 5 7 7 7 5 2 4 4 3 3 4 3 4 4
15 15 16 17 17 17 18 20 19 19 18 20 20 19 18 20 21 22 25 14 8 5 1 3 2 3 4 3 2 4 7 7 5 4 3 4 4 2 3 4 3 6 4 3 5 6 3
16 16 17 17 17 18 19 20 19 19 20 18 18 18 18 20 21 19 13 2 6 4 3 8 5 3 5 9 3 3 5 7 4 7 1 5 5 6 7 7 6 6 5 7 3 5 4
15 16 16 16 18 16 19 20 20 18 19 19 19 19 21 23 21 14 1 6 8 4 8 8 8 7 5 2 5 5 4 5 3 3 1 5 8 5 7 7 4 5 5 5 3 5 3
14 15 16 16 17 16 19 18 18 19 19 20 21 22 23 22 21 2 3 2 2 3 2 9 6 6 6 9 8 8 8 4 4 4 5 6 5 6 4 2 1 2 6 6 4 4 3
14 15 15 16 15 17 16 17 18 20 20 22 22 22 22 30 2 4 4 0 6 4 5 9 5 9 6 7 5 7 6 7 3 8 5 5 4 3 6 2 4 3 7 8 11 6 4
13 14 15 15 15 16 17 18 19 20 22 23 22 20 19 7 4 1 1 6 4 3 3 4 4 1 1 11 5 3 4 5 7 5 6 6 1 5 6 3 4 6 5 6 4 5 5
10 12 16 15 14 16 17 19 20 21 24 24 23 20 15 1 1 7 7 7 4 8 9 3 4 4 5 2 3 2 3 6 4 5 1 7 2 3 7 1 2 2 7 10 7 4 3
9 10 12 14 15 16 17 18 20 23 25 26 24 17 7 1 5 4 5 4 7 4 5 1 3 3 3 4 4 5 6 5 7 4 3 5 4 3 4 2 2 4 7 4 5 4 7
9 10 11 12 15 17 18 19 20 23 25 28 26 19 6 5 3 5 4 6 4 5 6 5 1 2 8 5 2 2 5 4 2 6 3 5 7 5 3 8 8 2 7 8 5 4 4
13 10 10 11 12 16 18 19 21 23 25 28 22 2 1 4 7 3 6 2 9 7 4 5 5 3 4 3 6 4 6 7 9 9 9 5 6 4 5 3 6 2 2 4 10 4 2
15 12 11 11 13 15 17 19 21 24 27 25 4 4 4 2 6 4 6 8 6 4 5 3 2 1 7 5 6 7 8 6 6 11 4 5 3 5 3 4 4 4 7 5 4 4 3
17 14 11 9 11 13 17 19 21 23 26 20 4 5 4 2 2 5 6 8 7 7 3 2 2 4 4 5 8 7 8 5 6 4 5 6 4 6 2 4 9 1 0 8 6 4 7
15 17 12 10 12 13 16 18 20 21 25 7 3 4 4 2 4 1 3 6 3 2 3 3 2 4 5 2 5 6 11 9 9 12 10 7 6 5 12 4 3 4 6 7 7 5 1
14 14 14 13 14 14 15 17 17 17 15 4 3 4 5 4 1 3 5 4 4 2 3 2 4 5 1 2 4 7 7 7 10 9 11 8 2 2 12 4 1 4 4 6 6 4 6
16 15 16 15 15 15 16 17 17 17 15 1 3 5 5 4 1 0 5 4 3 3 6 6 6 7 3 5 6 4 3 4 11 11 11 13 5 10 9 9 5 3 6 5 7 5 6
15 16 16 16 15 16 17 17 17 18 17 1 3 2 1 4 4 5 2 5 3 3 5 7 4 11 7 5 3 7 5 4 0 5 6 9 9 7 8 6 5 6 6 9 7 6 8
16 17 16 16 16 15 16 16 17 18 16 3 2 3 5 4 4 4 4 5 3 4 4 9 6 10 6 8 8 3 5 5 5 3 6 1 5 8 6 3 6 5 6 8 5 5 5
16 16 16 17 16 16 15 16 16 17 10 3 3 2 2 4 4 2 4 4 4 7 9 12 9 4 5 17 16 21 10 3 2 4 5 6 8 5 9 3 2 7 8 9 5 5 9
16 16 17 17 17 16 16 16 15 14 8 2 2 2 2 5 3 4 4 4 10 10 10 12 6 7 9 6 3 2 2 6 4 6 4 8 7 4 4 3 5 10 3 2 7 6 10
16 16 17 17 17 17 16 15 14 12 9 2 3 2 2 5 4 9 6 4 8 11 6 7 10 8 5 3 2 3 4 2 2 5 4 3 6 4 7 5 6 3 4 7 8 12 9
17 16 16 17 17 17 17 15 13 11 11 4 3 4 3 4 6 2 4 4 3 5 7 6 7 5 3 4 3 6 6 7 4 3 4 7 6 6 4 6 9 10 0 2 4 9 7
17 17 16 17 16 16 16 15 15 13 11 3 4 3 3 4 6 4 5 5 3 4 4 6 9 8 3 3 3 4 4 3 4 5 4 3 3 7 3 3 8 6 2 3 5 11 4
18 18 18 18 17 16 15 14 13 12 12 4 5 4 4 4 8 8 5 4 4 3 2 6 10 3 4 5 3 4 3 2 3 1 3 5 5 3 4 2 7 4 3 10 8 1 3
18 18 19 17 17 17 16 15 16 12 9 6 3 3 2 4 8 3 15 20 18 17 2 2 5 4 3 4 1 2 2 2 3 2 2 1 6 4 7 7 4 5 6 3 2 4 5
Wind_Direction
22 22 20 19 17 15 12 9 5 0 357 355 354 349 346 340 334 331 326 323 320 319 320 320 319 319 312 360 258 141 136 148 130 105 158 140 146 197 242 229 141 260 3 47 56 81 124
22 19 17 17 15 13 9 7 4 360 356 353 352 348 344 340 332 329 325 320 318 316 318 318 319 315 251 273 118 140 133 155 163 145 183 167 201 221 309 242 170 142 58 39 57 79 99
20 16 15 14 12 12 9 3 1 360 358 352 349 346 341 336 331 327 322 316 314 311 312 311 313 319 26 228 134 144 146 181 179 186 177 219 182 153 239 315 101 105 92 338 24 132 117
17 16 13 12 11 10 6 2 1 0 357 353 348 343 337 334 329 324 318 313 309 305 305 303 295 273 243 44 125 134 183 173 217 222 245 232 155 209 233 145 49 71 45 51 204 157 96
16 13 12 10 10 8 4 3 2 359 356 352 348 343 338 334 331 326 320 312 304 301 280 299 317 30 266 136 177 177 157 197 156 195 251 269 136 200 63 84 26 7 190 214 318 214 118
18 14 12 10 7 3 0 2 1 358 354 351 346 340 332 332 330 328 318 297 283 325 272 209 258 357 285 223 224 179 193 173 194 179 176 164 74 93 52 104 204 232 217 212 199 218 166
16 16 13 10 8 0 356 358 357 356 346 334 332 326 326 331 330 326 334 44 16 359 13 197 205 239 283 296 280 220 164 138 134 60 37 359 41 233 221 228 210 207 215 203 180 170 130
15 13 13 10 7 3 358 358 354 336 335 334 332 329 331 330 330 326 247 87 108 204 309 246 237 276 267 18 324 301 118 125 111 195 116 13 236 218 199 213 216 167 183 222 63 136 97
13 12 11 9 5 2 357 350 340 336 335 336 338 338 335 329 322 355 339 140 87 106 169 290 201 201 203 148 210 256 148 133 149 182 197 185 243 326 15 348 325 137 181 162 154 121 65
10 9 8 5 357 355 342 338 335 334 334 339 339 340 339 328 51 320 280 100 314 185 55 272 238 263 153 150 249 210 206 139 160 213 190 244 288 21 357 333 130 312 160 123 137 117 190
4 3 3 358 353 342 340 339 337 336 337 338 337 336 337 340 292 298 298 316 294 70 342 232 212 159 298 156 159 232 207 71 179 186 106 256 314 17 348 257 131 225 85 130 136 94 99
342 349 358 356 347 342 340 338 338 338 339 333 327 331 330 101 253 246 316 319 57 44 254 333 170 172 127 212 186 87 124 75 153 150 337 237 264 205 214 224 118 132 74 41 52 78 14
338 339 342 341 342 342 342 340 340 340 337 327 322 318 296 206 237 315 308 47 46 159 316 324 221 151 135 175 195 168 146 136 159 116 302 325 248 252 171 167 351 96 60 4 16 14 220
329 332 337 340 341 341 341 341 342 344 333 327 323 315 209 218 301 328 54 55 189 238 251 308 358 77 179 154 227 101 119 163 52 98 113 160 314 180 181 182 188 166 147 149 192 196 258
336 324 331 339 341 341 340 341 340 339 337 333 319 338 279 270 196 343 83 133 205 210 258 327 320 165 219 193 174 142 192 206 196 169 172 151 265 280 220 165 129 187 170 164 102 5 55
341 331 325 334 341 342 341 342 343 341 339 339 333 349 283 37 149 87 89 221 223 222 334 4 264 199 202 195 150 157 178 206 210 185 166 199 300 232 305 107 45 164 152 85 11 141 218
341 343 324 332 337 344 342 344 345 343 341 332 27 8 293 88 67 57 198 218 222 235 221 317 304 307 224 200 182 176 204 267 211 137 121 132 118 287 353 183 177 101 76 51 113 114 155
346 353 352 357 347 344 344 344 344 344 343 37 8 346 318 15 58 39 181 191 216 249 40 314 248 242 237 222 197 219 197 216 177 147 164 196 152 234 235 239 182 169 174 137 121 221 201
360 2 3 1 354 352 345 344 343 344 357 330 356 267 318 68 169 284 262 254 219 217 207 260 277 219 238 277 332 200 206 233 155 146 160 183 247 301 328 5 145 183 166 110 107 94 194
3 358 1 356 351 351 348 346 342 341 351 360 19 344 323 44 151 109 340 237 255 242 239 205 235 222 253 282 203 277 251 276 175 181 195 133 141 165 198 207 161 171 179 147 125 117 172
1 357 355 355 355 356 354 348 343 341 344 92 37 295 234 310 313 329 259 286 210 259 228 187 266 220 185 266 264 221 231 297 71 151 152 138 186 178 242 217 186 190 181 163 171 178 153
352 354 354 354 355 355 353 350 347 346 344 60 38 15 348 280 290 276 174 240 224 305 224 245 229 245 196 217 214 289 191 193 202 230 148 348 206 159 256 198 199 225 205 196 210 145 277
351 348 353 352 355 356 354 353 356 359 5 31 332 332 119 275 303 274 228 345 319 332 270 237 225 220 202 236 243 245 223 252 228 182 155 138 131 113 234 191 136 317 206 200 200 187 149
349 348 346 346 348 347 348 354 356 2 18 344 335 310 290 279 277 262 298 291 287 301 265 273 307 197 231 337 259 97 184 245 223 259 164 136 116 120 162 89 210 236 306 193 201 218 213
345 346 345 343 340 343 341 344 348 350 3 332 302 277 267 272 292 299 264 267 288 293 258 248 254 215 347 13 62 27 338 352 258 41 216 115 125 99 138 181 274 260 189 163 169 267 206
343 342 339 339 339 338 337 339 338 336 338 330 248 217 260 282 247 276 324 256 257 296 312 268 303 302 186 121 111 162 192 201 218 146 80 81 78 114 136 154 209 226 317 332 147 274 212
340 338 339 335 333 331 330 328 329 331 327 320 278 243 268 267 259 179 214 221 227 269 261 299 335 322 12 122 116 161 218 209 181 174 175 58 33 148 151 196 285 242 212 128 124 245 235
340 341 334 327 326 327 326 325 318 317 317 338 270 213 228 258 283 235 248 226 257 214 232 313 329 319 359 62 117 196 136 222 62 208 169 162 136 173 100 102 275 174 132 155 217 331 135
336 333 328 326 326 326 326 332 326 318 304 319 281 324 360 250 268 290 260 254 239 226 195 299 261 286 238 79 39 109 97 63 146 185 32 29 172 192 172 215 267 286 274 314 143 175 146